Theta_e
331 335 330 330 333 334 335 335 335 332 328 321 328 328 330 326 323 328 328 325 327 326 324 327 329 330 329 329 329 326 323 315 312 314 312 310 312 326 325 319 328 327 326
330 331 328 327 334 338 338 333 334 331 326 318 328 329 329 327 327 323 328 328 327 326 327 329 328 328 328 326 327 319 315 315 311 315 319 315 316 325 316 318 327 326 326
330 330 327 326 334 338 336 335 332 330 325 317 330 329 330 327 325 324 325 327 327 326 326 321 328 327 328 329 327 324 313 313 319 321 322 321 318 315 316 316 322 325 326
327 327 327 327 334 336 335 333 332 326 321 318 324 330 330 329 328 325 326 321 325 327 318 313 324 325 323 328 327 324 312 315 322 324 324 321 318 310 309 308 312 318 322
324 329 326 330 335 333 333 331 327 320 317 325 329 329 330 329 328 325 320 319 317 314 312 312 316 319 318 324 326 318 311 313 321 324 323 323 320 311 308 308 309 309 309
325 329 329 327 330 330 332 331 324 320 318 327 330 329 330 328 327 324 319 316 313 311 311 309 313 312 311 312 319 313 310 314 317 323 323 323 319 308 309 309 308 308 307
324 328 329 331 332 331 331 330 325 323 320 323 329 329 327 329 327 322 320 319 315 314 311 308 308 309 309 309 310 309 309 315 317 319 322 321 313 309 309 309 309 309 308
325 326 330 331 332 331 330 329 324 321 317 319 326 327 326 327 325 320 319 318 318 318 315 311 309 307 308 308 309 309 309 314 317 317 319 318 311 308 309 309 309 309 309
327 328 329 331 330 329 329 329 325 319 315 324 327 318 318 322 319 316 318 322 325 322 320 317 313 309 307 307 308 309 309 312 316 316 315 314 313 308 309 309 309 309 309
327 328 329 329 325 322 325 324 316 310 311 321 318 313 312 312 312 314 319 319 317 324 321 321 317 312 309 307 308 309 309 309 313 315 315 313 311 308 309 309 309 309 309
326 327 327 324 324 321 319 313 310 308 310 313 313 314 312 312 312 312 314 317 315 313 314 315 315 313 310 308 307 308 309 309 311 313 312 311 312 312 310 309 309 309 309
325 324 323 323 323 324 320 315 313 311 311 312 313 313 313 313 312 311 315 315 312 311 311 312 311 311 310 307 307 308 309 309 308 309 311 311 312 313 313 310 310 310 310
325 324 322 322 323 324 322 318 316 316 315 312 312 312 313 314 315 315 316 315 314 313 313 312 311 311 311 308 306 308 309 309 308 308 309 310 310 312 313 311 310 310 310
324 324 324 323 323 323 323 321 317 316 317 314 316 315 316 317 317 318 318 319 318 317 315 315 312 312 311 309 306 307 309 309 309 308 308 310 311 312 312 312 311 310 310
324 325 324 324 322 322 322 321 319 317 317 317 317 318 319 319 320 320 320 321 321 320 320 318 316 314 312 311 309 307 308 310 310 310 308 308 310 311 311 312 312 311 310
325 324 325 326 325 322 321 321 321 320 318 317 319 320 321 321 321 321 322 322 323 322 322 321 320 319 317 314 313 311 309 310 311 311 311 310 309 310 311 310 310 311 312
327 327 327 327 327 326 323 320 319 321 320 320 319 319 321 322 322 322 323 323 323 323 323 322 322 321 320 318 317 316 313 311 310 312 311 310 310 310 310 310 310 310 310
325 326 327 327 328 327 325 323 321 319 321 319 320 321 321 321 323 323 323 323 323 324 324 324 324 323 323 322 322 320 318 317 315 314 313 314 314 313 312 311 310 309 309
323 324 324 326 327 327 327 327 325 323 322 320 320 321 324 326 326 326 325 324 324 324 325 325 325 324 324 324 324 323 322 321 320 319 318 317 316 316 315 314 313 313 312
320 321 323 325 329 329 328 328 328 327 326 325 324 323 322 324 327 329 329 329 329 328 327 326 326 326 326 325 324 324 324 324 324 323 323 321 321 320 319 318 317 316 315
318 319 321 323 326 329 329 329 329 328 328 327 327 327 328 330 331 331 331 331 331 331 330 330 329 328 328 327 326 326 326 326 326 326 325 324 324 323 322 322 320 319 319
319 319 319 319 321 322 326 329 329 328 328 328 329 330 331 330 330 331 331 331 331 331 330 330 330 330 330 329 328 325 324 325 325 326 326 322 319 320 320 320 320 320 320
317 317 318 319 319 320 323 326 328 329 329 329 331 331 330 330 330 330 331 331 331 330 330 330 330 330 329 328 327 326 325 325 325 326 326 324 324 323 321 320 320 319 319
317 317 317 317 319 320 322 323 325 328 328 327 326 325 326 326 326 327 327 327 328 328 329 330 330 330 330 328 328 327 327 326 325 325 325 326 325 325 324 323 321 320 321
317 317 317 317 317 317 317 317 318 318 317 317 317 318 321 323 325 325 325 326 328 328 327 328 329 330 330 329 329 329 329 328 327 325 325 325 325 325 325 325 325 324 322
317 316 316 315 315 315 315 315 315 315 315 315 315 315 315 315 314 314 314 317 318 319 320 322 324 325 326 328 328 329 329 328 327 327 326 325 325 325 325 325 325 324 325
Wind_Speed
6 6 10 15 14 12 12 8 6 6 6 7 5 3 4 2 4 7 5 4 1 3 6 6 10 8 6 6 4 7 6 4 3 2 4 4 5 7 7 4 5 6 4
2 6 11 14 12 13 11 8 7 6 7 5 5 5 4 2 1 3 3 4 2 2 4 7 8 7 7 2 3 3 6 5 4 3 2 6 5 6 5 4 5 5 5
3 5 10 13 14 15 12 9 7 7 7 6 6 5 6 3 8 4 6 6 5 4 4 9 7 8 7 8 5 5 5 7 6 5 5 4 3 2 4 4 7 6 5
4 5 9 13 16 14 11 9 8 7 9 5 8 6 5 3 5 4 5 4 7 5 5 6 7 8 10 7 6 6 7 11 8 6 7 6 3 4 4 5 7 7 8
4 5 7 11 14 12 10 10 9 9 7 8 6 7 7 6 4 4 3 6 6 7 4 6 7 5 8 11 6 7 9 13 13 10 8 6 3 5 4 4 5 4 4
5 5 5 10 13 12 11 10 9 7 8 8 8 9 9 8 6 8 3 4 4 6 4 5 9 8 6 8 9 9 11 13 13 13 8 5 5 6 5 4 4 3 3
4 5 5 8 11 11 12 11 10 8 10 12 11 12 10 9 10 7 4 6 5 5 5 6 8 10 9 8 8 11 13 14 13 13 13 9 8 8 7 5 4 3 3
3 5 6 7 9 12 13 12 11 10 10 11 14 14 14 13 13 11 7 6 6 6 7 7 8 10 11 10 10 10 14 16 15 14 13 10 9 9 8 7 6 5 4
5 6 6 7 10 13 15 15 14 12 12 12 15 12 12 15 12 12 8 8 8 8 9 9 9 10 11 12 12 12 15 17 17 16 14 14 11 11 10 9 8 7 6
8 8 8 9 10 12 14 14 14 12 13 13 13 8 8 10 10 12 10 9 9 9 11 11 11 11 12 13 14 14 15 18 19 19 17 16 14 13 13 12 11 10 8
12 12 11 10 9 8 11 14 13 11 11 11 11 9 9 8 9 10 10 9 11 13 13 14 14 14 14 14 16 16 17 18 21 21 21 19 16 16 16 15 14 13 12
14 13 12 11 10 9 10 11 10 10 10 10 10 10 10 10 10 10 9 8 10 12 13 14 15 16 16 16 17 18 20 20 22 24 24 22 20 19 19 19 18 17 16
14 15 14 13 12 12 10 10 11 10 9 10 10 10 9 10 9 8 9 10 11 12 13 14 16 17 17 17 18 20 21 22 24 25 26 24 24 22 22 22 22 21 20
18 18 17 16 16 15 13 12 12 13 11 11 11 10 11 10 10 10 11 12 13 14 15 15 16 16 17 18 20 21 23 24 25 26 28 28 28 27 26 26 27 26 25
22 20 20 20 19 19 17 16 15 15 14 11 14 12 12 13 13 13 14 15 16 16 18 18 18 18 19 19 21 23 24 26 27 28 30 31 32 31 31 31 31 31 31
20 20 19 21 21 21 21 20 18 17 15 16 15 15 15 15 16 16 17 18 19 19 19 20 20 21 22 22 23 24 27 28 29 31 32 34 36 37 36 36 36 35 35
19 17 19 20 21 23 23 23 23 20 19 19 19 18 18 19 20 20 21 23 24 25 25 26 26 26 27 27 28 27 28 29 31 32 34 36 38 39 41 41 41 41 40
22 21 19 20 22 24 24 24 25 23 22 22 23 22 23 24 26 26 29 30 30 30 30 31 31 31 32 32 33 32 32 33 33 35 37 38 40 41 43 45 46 46 46
21 23 22 22 22 21 22 23 23 23 24 26 27 26 27 28 29 30 32 33 34 35 35 36 37 36 37 38 37 37 36 37 37 38 41 41 42 43 44 45 46 47 48
14 14 18 22 26 26 24 23 23 25 25 25 26 27 28 29 31 32 33 35 36 37 38 39 39 40 41 42 43 42 41 41 40 42 45 44 45 46 46 47 47 47 47
4 8 7 11 19 26 27 28 27 26 26 26 26 27 27 29 30 32 34 34 34 36 37 37 38 39 41 42 43 46 47 46 47 47 48 48 48 48 47 46 45 45 46
16 14 10 6 10 11 11 22 28 30 30 28 26 26 27 28 27 28 29 30 30 31 32 33 34 37 39 39 41 39 31 38 45 44 38 30 31 32 37 38 40 40 42
16 17 16 14 9 8 8 7 12 20 26 25 23 24 24 24 25 25 26 27 28 31 31 31 32 34 37 36 38 36 17 19 30 34 32 29 36 38 34 31 34 35 36
17 16 15 14 10 6 5 4 4 7 12 14 18 19 20 21 23 23 22 23 24 26 29 29 31 33 35 38 35 39 44 45 30 31 39 37 34 42 44 42 42 42 42
14 14 14 13 13 14 13 13 10 8 9 10 10 10 11 11 12 13 15 17 18 19 24 27 31 35 37 39 39 40 42 44 46 44 35 44 42 42 45 44 47 46 45
11 11 12 12 14 13 12 12 13 13 12 11 12 12 12 12 12 12 13 16 18 19 20 22 26 29 31 35 38 41 41 35 35 36 38 40 42 50 49 48 48 49 47
Wind_Direction
210 206 197 194 200 211 221 222 250 268 292 302 162 148 173 193 193 181 196 276 260 268 216 181 163 187 203 207 202 228 226 220 193 130 106 133 141 144 149 102 67 60 49
262 210 193 192 196 204 221 231 252 265 291 276 162 173 152 220 121 168 142 203 169 195 157 142 175 184 201 208 217 228 182 191 194 189 128 105 126 151 158 154 94 97 106
232 219 197 196 199 212 226 232 254 261 279 238 177 172 202 252 221 225 199 173 188 204 179 170 167 188 166 191 216 249 181 178 179 203 190 135 148 204 194 187 171 148 169
236 216 200 197 205 221 234 239 262 257 261 209 164 205 220 219 198 220 196 217 196 213 244 201 161 186 172 174 203 229 181 176 182 214 191 179 171 215 198 194 194 193 206
211 199 192 209 215 226 236 251 253 272 209 165 186 200 216 240 221 247 270 250 236 249 253 219 188 197 190 194 195 203 184 186 194 210 208 193 205 231 210 190 196 221 228
210 203 222 217 222 241 245 252 250 258 209 175 195 199 213 231 235 243 273 298 240 242 244 242 228 241 243 238 215 193 190 194 203 210 210 212 228 215 206 196 192 205 209
211 212 216 213 228 241 246 256 256 262 216 199 200 211 204 226 235 266 280 284 259 251 253 250 252 248 256 258 222 195 194 197 203 210 217 212 225 219 215 213 213 211 199
233 223 232 237 253 254 246 256 263 260 237 224 213 223 205 219 243 272 277 270 247 263 262 256 256 253 252 250 235 210 203 204 211 214 213 217 225 226 226 225 227 220 208
244 247 250 258 272 254 243 256 265 261 247 214 222 227 224 235 256 268 265 261 260 272 266 269 263 257 255 248 240 225 215 211 218 225 223 216 225 231 235 235 233 230 224
244 251 255 260 268 249 245 254 262 262 245 235 235 244 247 249 258 264 258 261 270 265 273 272 269 270 264 255 245 234 225 222 224 232 234 230 225 230 240 244 245 245 241
236 243 249 255 257 253 250 258 255 256 250 244 242 246 257 267 265 269 265 272 272 276 279 278 275 276 267 258 248 241 233 230 229 233 238 237 233 232 241 242 246 249 250
233 236 246 248 247 247 252 248 247 246 247 246 245 250 259 268 273 277 267 275 284 288 293 290 281 273 266 259 251 244 239 234 234 237 240 239 237 237 244 247 247 249 252
238 241 245 248 249 249 254 260 248 242 245 245 248 253 256 261 274 278 278 285 295 300 292 291 287 277 272 264 257 251 248 242 240 240 241 244 244 243 245 249 250 251 252
234 239 247 247 249 252 257 251 249 242 242 243 245 247 248 258 267 275 284 291 297 297 294 288 288 285 275 268 260 254 251 248 246 245 244 246 249 250 249 251 254 254 254
247 248 248 249 251 251 254 258 253 250 249 250 246 254 257 265 272 278 285 288 294 294 294 291 291 288 283 275 267 261 255 254 253 251 248 249 253 255 254 254 255 257 258
260 259 254 253 256 254 257 260 258 255 254 254 254 256 261 264 268 274 281 285 286 286 288 289 289 287 283 277 274 268 265 261 258 255 255 253 254 256 256 257 257 257 258
276 277 270 264 262 259 260 262 261 256 255 259 261 261 263 266 269 270 275 279 282 283 284 284 285 285 284 281 277 275 271 268 266 264 261 259 258 259 260 260 260 261 262
273 270 273 272 267 265 265 263 262 264 264 269 270 271 271 274 276 277 278 279 280 281 281 280 282 282 281 281 282 280 277 275 273 269 267 264 263 262 262 263 263 262 263
270 266 261 263 269 273 270 268 269 269 270 274 274 276 279 281 282 281 281 284 286 286 283 282 281 279 281 281 280 282 279 277 277 277 273 270 269 268 267 266 266 265 265
271 276 259 256 258 261 266 270 272 269 270 275 281 284 285 287 288 287 288 289 290 289 287 284 282 283 283 283 284 284 282 280 277 274 274 273 272 270 270 269 269 268 266
349 276 294 277 265 259 257 255 261 269 279 285 289 288 293 297 298 296 296 296 295 292 292 290 287 283 283 283 282 282 283 282 280 278 278 277 276 274 275 272 270 271 272
56 50 35 293 284 298 289 265 259 263 271 279 285 289 294 299 303 303 301 302 300 299 298 295 292 290 288 286 280 278 275 282 282 285 288 286 287 283 280 279 275 274 275
60 52 44 35 11 324 327 295 272 269 273 280 285 290 292 293 296 297 297 297 297 298 296 296 297 295 292 292 287 270 274 262 284 286 285 284 285 286 285 280 281 280 275
59 54 48 43 40 21 350 320 304 275 278 287 293 297 299 299 299 299 299 298 297 299 297 295 294 295 293 290 290 282 276 270 270 282 282 282 279 282 284 286 286 286 282
63 54 51 45 47 43 38 40 36 31 21 9 356 345 332 324 319 316 313 318 311 308 302 297 296 294 291 291 289 287 283 279 270 258 271 280 281 280 283 285 290 292 289
58 50 42 39 45 45 46 49 46 41 32 21 14 5 360 354 351 344 328 322 318 317 315 307 303 301 299 290 283 282 275 266 270 266 261 265 272 284 285 285 288 290 291